Vertical_Velocity
4 2 -0 -0 -4 -1 4 -1 -2 2 4 5 -2 -5 -3 -4 -1 1 2 0 1 3 5 2 4 3 -1 -2 2 -1 17 6 -9 5 -6 1 -1 4 4 9 5 25 -5
3 -1 -4 -4 -5 3 -0 -1 -6 5 -0 0 -13 -5 -5 -2 2 -0 -2 -1 -4 -4 -4 -1 -1 -3 -2 -0 1 1 -0 4 3 -2 -5 -2 -3 3 2 -0 4 0 0
-4 -5 -1 -5 6 19 12 4 2 9 -4 -1 -5 -11 -9 -2 -3 -2 -2 -0 1 1 1 -1 -3 -4 -3 -1 -1 -3 2 1 -3 -4 -4 -1 -2 0 -0 5 -2 3 11
2 1 -2 1 1 -1 -4 -3 3 5 -14 0 6 -10 -7 -5 -2 -1 -1 -0 3 2 -0 -1 -2 0 -2 -0 -0 -2 -3 0 -2 -1 -0 -1 0 5 6 -11 1 4 -3
-3 -2 -1 1 8 1 14 1 26 3 -13 -7 2 -7 -7 -5 -2 -4 -2 -2 -2 -2 1 -0 -1 1 3 4 -2 -6 -3 -6 -2 -4 -4 -2 -2 1 -1 -2 -5 -2 7
-5 -5 -6 3 9 11 4 29 5 2 -21 1 6 -5 -6 -4 -4 -1 -0 0 -0 -2 -5 -1 -1 1 0 1 3 3 1 -2 1 1 1 -0 -1 -2 1 -2 -2 -3 -8
3 0 -6 -1 2 -1 -10 -7 -0 11 -6 -0 4 -3 -7 -1 -3 -6 2 1 2 -0 -1 -3 -0 0 1 -0 0 1 -1 -0 -1 -0 -2 2 -3 4 3 1 -2 -5 -6
-7 0 5 -3 1 1 -7 -4 -2 1 -3 5 1 -5 -3 -8 -3 -4 -1 -1 1 1 -1 -3 -3 1 2 -1 -0 -0 1 3 0 -1 -7 -2 -2 1 -4 -2 -0 -3 -3
-4 -5 -0 -0 -11 3 3 1 2 1 2 2 1 2 -3 2 -1 1 3 2 -0 -1 -1 -1 -2 -2 0 1 -1 -2 -2 3 1 -1 -3 -1 1 1 3 -1 -1 -2 -2
-4 -6 -4 -1 1 -0 5 -1 -1 1 -1 3 1 -3 -4 -4 -1 1 -1 -1 -0 -1 3 1 -0 -1 -1 -3 -1 -1 -1 1 -1 2 0 -1 -1 -1 0 -2 -2 -4 -3
-0 1 -2 -2 -2 -0 -0 -3 3 -1 4 4 0 -3 -6 -3 -3 -2 -2 -2 -2 -2 -2 -1 1 1 1 -0 -1 -2 -1 -0 1 -2 -1 -0 -2 -2 -0 -1 -1 -1 -1
-4 -6 -2 -1 -2 0 -1 2 1 0 5 2 0 -1 1 2 -2 -2 -2 -2 -2 -3 -1 0 0 0 1 0 -0 -0 -0 0 -1 -2 -1 -0 0 -0 -0 0 0 -1 -2
-0 -1 -1 -1 -0 -0 0 1 0 1 1 0 -1 -1 2 -0 -1 -0 -1 -2 -0 1 -0 -1 -1 0 1 1 1 1 1 -1 1 1 1 1 2 1 2 2 1 -0 -0
-1 -0 0 -0 1 -1 -1 -0 1 2 2 -0 1 1 -2 -2 -1 2 1 2 2 1 0 1 0 -1 -1 1 2 1 1 2 1 2 1 2 2 1 0 -0 0 -0 1
0 -0 -0 1 -1 -2 -3 -1 1 -0 1 -2 -1 -1 -2 -1 -2 -3 -5 -3 -1 -1 -0 -0 0 0 1 2 2 1 1 1 1 -0 -0 1 2 2 1 1 0 -0 -1
1 -2 -1 2 -1 -2 0 -0 0 1 -1 1 0 1 -1 -1 -1 -1 -5 -1 -1 0 0 -0 -1 0 -1 1 2 3 3 2 1 1 1 -0 0 -0 -1 -1 -1 0 0
1 -0 1 0 1 -1 -1 -0 1 6 1 1 0 -0 -2 -1 -1 -5 -4 -1 -0 1 0 0 -1 -1 -0 1 1 1 1 0 -0 -0 0 1 -1 -1 1 -0 0 -0 -1
-2 0 1 -1 -0 0 -0 1 0 -2 -0 -1 0 -1 -1 -2 -3 -4 1 -1 -0 -0 0 0 0 -0 -1 1 1 1 1 1 3 3 1 0 -0 0 0 -0 1 1 -0
-2 -1 1 0 0 -0 -0 0 -0 0 -0 -1 -2 1 -1 -3 -4 -2 -2 -1 -2 -1 -0 1 0 1 -0 -0 0 1 2 1 2 1 2 1 1 1 1 1 1 0 1
-2 1 -0 -1 1 0 0 -0 -0 0 -0 -1 -1 -1 -3 -2 0 1 -1 -1 -1 -2 -1 -1 -0 0 -0 -0 1 1 2 1 1 1 1 1 0 1 1 1 1 0 0
-2 -1 0 1 -0 0 -0 -1 -1 -0 -1 -1 -1 1 1 0 0 -1 1 -3 -0 -0 -1 -1 -0 -0 0 -0 -1 -1 1 1 1 1 0 0 -0 -0 1 0 2 2 -0
-1 -1 1 1 1 1 -0 -1 -1 -1 -1 -1 -2 -2 0 1 0 -1 -3 -1 -1 -0 0 -1 -1 0 -0 0 1 -0 -0 1 0 0 1 0 0 -1 0 1 1 0 -0
-1 -1 -0 -1 -1 -0 -0 -1 -1 -2 -2 -2 -2 -2 -2 -1 -2 -2 -1 -1 -1 -0 -0 -0 -1 -1 -1 -1 -0 1 0 -1 1 1 0 0 -0 -0 -0 1 0 0 0
-1 -0 1 -1 -1 -1 -0 1 -1 -2 -1 -2 -1 -2 -1 -1 -1 -0 -0 0 0 -0 -0 -1 -0 0 0 -1 -1 -0 -0 0 0 -1 1 1 1 1 0 1 1 1 1
-0 0 -1 -1 -1 -1 0 0 -1 -3 -2 -1 -1 -2 -2 -1 -1 -0 -0 -0 -1 -2 0 -0 -1 -0 -0 -0 -1 -0 -0 -0 0 0 0 -0 0 1 2 1 1 1 0
3 1 0 -1 -1 -1 -0 0 -1 -1 -1 -1 -1 -2 -2 -2 -1 -1 -1 -1 -0 0 1 1 -0 -1 0 -1 0 0 0 -0 0 0 0 0 -1 -1 0 1 1 1 1
Height
3105 3099 3094 3088 3079 3071 3067 3062 3056 3051 3045 3038 3031 3024 3017 3010 3003 2998 2994 2991 2987 2983 2980 2976 2973 2971 2969 2968 2967 2966 2963 2963 2960 2961 2961 2962 2963 2964 2964 2965 2965 2965 2970
3094 3088 3083 3076 3068 3062 3056 3049 3045 3041 3033 3025 3020 3014 3007 3000 2995 2990 2986 2982 2978 2974 2970 2967 2964 2962 2960 2959 2957 2955 2952 2950 2950 2949 2950 2951 2954 2956 2957 2957 2959 2959 2960
3084 3078 3072 3066 3060 3053 3046 3039 3033 3030 3024 3018 3010 3005 2999 2992 2987 2984 2980 2976 2971 2967 2963 2958 2955 2951 2949 2947 2945 2944 2943 2942 2940 2940 2940 2943 2944 2947 2949 2950 2950 2952 2954
3077 3070 3064 3058 3051 3042 3036 3030 3023 3018 3016 3009 3002 2996 2991 2985 2981 2978 2973 2968 2963 2958 2953 2948 2944 2941 2938 2935 2933 2932 2932 2931 2931 2931 2930 2931 2934 2938 2940 2940 2942 2944 2946
3069 3062 3055 3048 3041 3034 3028 3022 3013 3010 3007 3000 2995 2989 2984 2979 2976 2971 2965 2959 2953 2947 2941 2936 2932 2928 2925 2923 2921 2919 2919 2919 2919 2920 2920 2920 2923 2926 2929 2930 2931 2934 2938
3059 3053 3045 3039 3033 3027 3020 3011 3007 3002 2998 2994 2989 2983 2977 2973 2968 2962 2956 2950 2943 2935 2927 2922 2917 2914 2911 2909 2909 2909 2909 2908 2909 2908 2909 2910 2912 2915 2918 2920 2921 2924 2927
3050 3042 3035 3030 3024 3018 3013 3005 3001 2996 2991 2987 2982 2976 2971 2966 2960 2953 2947 2939 2931 2923 2917 2910 2905 2902 2899 2898 2897 2897 2897 2898 2898 2897 2898 2900 2901 2904 2906 2908 2910 2911 2912
3041 3034 3027 3020 3015 3010 3004 2999 2995 2991 2986 2981 2976 2970 2965 2959 2952 2945 2937 2929 2921 2914 2907 2901 2895 2891 2889 2888 2887 2886 2887 2888 2888 2888 2887 2890 2890 2894 2894 2897 2899 2900 2903
3032 3025 3018 3011 3005 3000 2996 2993 2989 2985 2980 2975 2970 2965 2960 2954 2947 2938 2930 2921 2912 2905 2899 2894 2888 2884 2882 2880 2878 2877 2877 2878 2878 2878 2879 2880 2881 2884 2885 2887 2889 2891 2894
3024 3017 3010 3004 2998 2993 2990 2986 2982 2978 2975 2969 2965 2959 2953 2946 2938 2930 2921 2911 2904 2898 2894 2888 2883 2879 2876 2873 2872 2870 2869 2869 2869 2869 2870 2871 2872 2875 2877 2878 2881 2883 2884
3015 3009 3003 2997 2992 2988 2984 2981 2978 2974 2969 2965 2960 2954 2947 2940 2931 2922 2913 2904 2898 2892 2887 2881 2877 2874 2871 2868 2866 2864 2862 2861 2861 2861 2862 2864 2866 2868 2870 2872 2874 2875 2877
3008 3001 2996 2991 2986 2982 2979 2976 2972 2968 2964 2959 2954 2949 2943 2936 2927 2918 2909 2901 2895 2888 2883 2877 2873 2869 2866 2863 2861 2858 2856 2855 2855 2855 2857 2858 2860 2862 2864 2866 2868 2869 2871
3000 2994 2989 2984 2980 2976 2974 2970 2967 2963 2958 2954 2948 2944 2938 2931 2923 2915 2906 2899 2893 2887 2881 2875 2871 2867 2864 2860 2857 2854 2852 2851 2852 2853 2854 2856 2857 2859 2861 2863 2865 2866 2867
2993 2987 2982 2978 2974 2971 2968 2965 2961 2958 2954 2948 2944 2939 2933 2926 2919 2912 2904 2897 2892 2886 2881 2875 2871 2867 2863 2859 2856 2852 2851 2851 2851 2852 2853 2854 2856 2858 2860 2861 2863 2864 2864
2986 2981 2976 2972 2969 2966 2963 2960 2957 2953 2948 2943 2939 2934 2929 2923 2916 2908 2900 2894 2889 2885 2880 2875 2871 2868 2864 2861 2858 2854 2852 2851 2851 2851 2852 2853 2855 2857 2858 2860 2861 2862 2862
2979 2975 2971 2968 2965 2961 2959 2955 2952 2948 2944 2940 2935 2931 2926 2920 2914 2907 2899 2893 2888 2884 2880 2876 2872 2868 2864 2862 2858 2855 2853 2851 2850 2850 2851 2853 2854 2855 2857 2858 2859 2859 2860
2972 2969 2966 2963 2960 2957 2954 2950 2947 2945 2940 2936 2932 2928 2923 2918 2913 2906 2899 2893 2888 2884 2880 2876 2872 2869 2866 2863 2860 2858 2856 2853 2851 2849 2850 2852 2852 2854 2855 2856 2856 2857 2857
2966 2963 2961 2957 2955 2952 2949 2945 2942 2938 2935 2931 2928 2924 2920 2915 2910 2905 2900 2894 2888 2883 2879 2876 2873 2870 2867 2865 2862 2859 2857 2854 2852 2850 2849 2850 2852 2853 2853 2854 2854 2854 2855
2959 2957 2956 2953 2950 2947 2943 2940 2937 2934 2931 2927 2923 2920 2916 2912 2908 2904 2899 2894 2889 2884 2880 2876 2873 2871 2868 2866 2863 2860 2858 2856 2854 2853 2851 2851 2852 2852 2852 2852 2852 2852 2852
2954 2953 2950 2948 2945 2942 2939 2936 2933 2930 2927 2924 2920 2916 2912 2909 2906 2902 2898 2894 2889 2884 2880 2876 2873 2871 2869 2866 2864 2862 2859 2857 2856 2854 2853 2852 2851 2851 2851 2850 2850 2849 2849
2950 2948 2945 2942 2939 2937 2934 2932 2929 2927 2924 2920 2917 2914 2910 2907 2904 2900 2896 2892 2888 2884 2880 2876 2873 2871 2868 2866 2863 2861 2859 2857 2856 2854 2853 2852 2851 2850 2849 2849 2848 2847 2846
2946 2943 2941 2938 2935 2932 2930 2928 2925 2923 2920 2917 2914 2910 2907 2904 2900 2897 2893 2890 2886 2883 2879 2876 2873 2870 2867 2865 2862 2860 2858 2857 2855 2853 2852 2851 2850 2849 2848 2847 2846 2845 2844
2941 2939 2936 2933 2930 2928 2926 2924 2922 2920 2917 2914 2910 2907 2903 2900 2897 2894 2890 2887 2884 2881 2877 2874 2871 2868 2865 2863 2860 2858 2856 2855 2853 2852 2850 2849 2848 2847 2846 2845 2844 2843 2842
2937 2934 2931 2928 2925 2923 2922 2920 2918 2916 2913 2911 2908 2904 2900 2897 2894 2891 2888 2884 2881 2878 2875 2871 2869 2866 2863 2861 2858 2856 2854 2852 2851 2849 2848 2847 2846 2845 2843 2843 2842 2841 2840
2932 2930 2927 2924 2921 2919 2917 2916 2914 2912 2909 2907 2904 2901 2897 2894 2891 2888 2885 2881 2878 2874 2871 2868 2865 2863 2860 2858 2856 2853 2851 2849 2847 2846 2845 2843 2843 2842 2841 2840 2839 2839 2837
2927 2925 2922 2920 2917 2915 2913 2911 2910 2908 2905 2903 2900 2897 2894 2892 2889 2885 2882 2878 2874 2870 2867 2864 2861 2858 2856 2854 2852 2850 2848 2846 2844 2842 2841 2840 2839 2838 2838 2837 2836 2835 2834